Weather in Vladislavovka

Russia / Republic of Crimea     45°28′08″N   34°35′43″E
temp.,
°C
wind,
m/s
gust,
m/s
humid.,
%
clouds,
%
prec.,
mm/h
press.,
hPa
HPBL,
m
21 january, fri
fri2100:00+5sw7137524 0.0 1013581
03:00+3wsw511815 0.0 1012263
06:00+1sw4108613 0.0 1011186
09:00+2sw41386100 0.0 1012341
12:00+5wnw61066100 0.0 1014767
15:00+2wnw5863100 0.1 1014883
18:00+1w3664100 0.0 1014219
21:00+1w4869100 0.0 1015338
22 january, sat
sat2200:000w4866100 0.0 1015264
03:000wsw385998 0.0 1014212
06:00−2wsw33652 0.0 101553
09:000ssw2562100 0.0 1015208
12:00+2ssw446138 0.0 10151001
15:00+3wsw354298 0.1 10141711
18:00−1nnw3456100 0.0 101551
21:00−1nnw2462100 0.0 101681
23 january, sun
sun2300:00−1nnw2564100 0.0 1016150
03:00−1n3668100 0.0 1015200
06:00−1nnw3669100 0.0 1016182
09:00−1nnw4768100 0.0 1016382
12:00+1nne5657100 0.0 1017846
15:00+1nne6757100 0.0 10161087
18:000n4871100 0.0 1018378
21:00−1nnw4973100 0.0 1019283
24 january, mon
mon2400:00−2nnw4883100 0.0 1020374
03:00−2nnw4880100 0.0 1021402
06:00−3nw3779100 0.0 1021428
09:00−3wnw4781100 0.0 1023563
12:00−2nw5668100 0.1 1023817
15:00−1wnw5662100 0.1 1023922
18:00−2wnw477190 0.0 1024337
21:00−3w3775100 0.0 1025290
25 january, tue
tue2500:00−3wsw4877100 0.0 1026337
03:00−3wsw5978100 0.0 1025403
06:00−3wsw4981100 0.0 1025308
09:00−3wsw478690 0.0 1026269
12:00+1w676234 0.0 1025907
15:00+2w5654100 0.0 10251326
18:00−2nnw347846 0.0 102561
21:00−3wsw128667 0.0 102511